Location: Newark
(44.3681°N, 100.3364°W)
Time: 22:32:16
(UTC+00:00)

Vanguard 1 - Pass Details

Date: 21 February 2020
Orbit: 649 x 3833 km, 34.2° (Epoch: 05 April)

Event Time Altitude Azimuth Distance (km) Brightness Sun altitude
Rises 14:26:40 0° 227° (SW) 7,967 14.5 8.3°
Reaches altitude 10° 14:32:40 10° 221° (SW) 6,886 14.2 9.3°
Maximum altitude 14:52:36 44° 159° (SSE) 3,795 13.8 12.5°
Drops below altitude 10° 15:05:37 10° 94° (E) 4,646 14.8 14.5°
Sets 15:08:44 0° 87° (E) 5,286 14.8 15.0°
